Torna al catalogo

SL-16 DEB

AttivoLEO
NORAD 22337·DEBRIS·🇷🇺 Russia

Lanciato Dec 25, 1992 da Baikonur Cosmodrome

Loading…

Prossimi Passaggi (prossime 24 ore)

TLE

AggiornatoSource: Space-Track

Epoca: Sep 14, 2026, 15:07 UTC

1 22337U 92093AA  26257.63024026  .00000035  00000-0  62484-4 0  9991
2 22337  71.2898 142.5202 0146215 119.4790 242.0996 13.84584984702027

Traccia SL-16 DEB in tempo reale con AllMySat

Download on the App Store